Weather in Ust-Avam

Russia / Krasnoyarsk Krai     71°06′50″N   92°49′14″E
temp.,
°C
wind,
m/s
gust,
m/s
humid.,
%
clouds,
%
prec.,
mm/h
press.,
hPa
HPBL,
m
15 april, thu
thu1501:00−21wsw41010097 0.1 1009137
04:00−22wsw25100100 0.1 100974
07:00−21s2299100 0.1 100733
10:00−16ese2393100 0.0 1003153
13:00−13e5688100 0.1 999341
16:00−12ene6889100 0.0 996531
19:00−16ne7119695 0.1 993297
22:00−19nne61297100 0.3 992256
16 april, fri
fri1601:00−20n51098100 0.7 992268
04:00−22nw4798100 0.7 994234
07:00−23wnw6897100 1.1 996271
10:00−22w7994100 0.3 998399
13:00−20w81091100 0.4 1000623
16:00−18wnw81193100 0.2 1002762
19:00−19w81195100 0.4 1004619
22:00−20w81196100 0.3 1005515
17 april, sat
sat1701:00−21w81197100 0.6 1006474
04:00−21w81296100 0.3 1008433
07:00−21w81196100 0.5 1009429
10:00−20w81093100 0.1 1011475
13:00−18w8988100 0.3 1012591
16:00−18w71090100 0.1 1014614
19:00−19w71094100 0.2 1016500
22:00−21w6109591 0.1 1017283
18 april, sun
sun1801:00−23w5109682 0.1 1018169
04:00−26wsw599884 0.0 1020127
07:00−25w499877 0.0 1021155
10:00−22w589580 0.0 1021219
13:00−20w5792100 0.0 1022286
16:00−18w569084 0.0 1023314
19:00−18w479492 0.0 1024200
22:00−20wsw479693 0.0 1024125
19 april, mon
mon1901:00−21wsw479787 0.0 1024108
04:00−23w369876 0.0 102473
07:00−22w369869 0.0 1025119
10:00−19w469448 0.0 1024176
13:00−16w459162 0.0 1024242
16:00−15w469043 0.0 1024243
19:00−17wsw479370 0.0 1025122
22:00−18wsw4795100 0.0 1025143